[[{"header":{"parameterUnit":"m.s-1","parameterCategory":1,"la1":30.2991,"la2":30.254,"lo1":-89.0895,"lo2":-89.0444,"dy":0.0017,"dx":0.0017,"nx":28,"ny":28,"refTime":"2023-09-19T09:00:00:Z","depth":0,"parameterNumber":2,"parameterNumberName":"U-component_of_WINDS"},"data":[0,0,0,0,0,0,0,0,0,0,0,0,0,0,0,0,0,0,0,0,0,0,0,0,0,0,0,0,0,0,0,0,0,0,0,0,0,0,0,0,0,0,0,0,0,0,0,0,0,0,0,0,0,0,0,0,0,0,-3.6965,-3.6966,0,-3.7078,-3.7079,-3.708,-3.7057,-3.7055,-3.7053,-3.7051,-3.7167,-3.7172,-3.7177,0,0,0,0,0,0,0,0,0,0,0,0,0,-3.6729,-3.6733,-3.6965,-3.6966,-3.6968,-3.7078,-3.7079,-3.7081,-3.7058,-3.7055,-3.7053,-3.705,-3.7166,-3.7172,-3.7178,0,0,0,0,0,0,0,0,0,0,0,0,0,-3.6836,-3.6735,-3.6965,-3.6969,-3.6971,-3.7077,-3.7079,-3.7081,-3.7058,-3.7055,-3.7052,-3.7049,-3.7164,-3.7171,-3.7179,-3.7287,0,0,-3.7202,-3.7205,0,0,0,0,0,0,0,0,-3.683,-3.6844,-3.6967,-3.6969,-3.6971,-3.705,-3.7039,-3.715,-3.7059,-3.7025,-3.7051,-3.7047,-3.7131,-3.7141,-3.7169,-3.7293,-3.7298,-3.7202,-3.7207,-3.721,-3.7212,0,0,0,0,0,0,0,-3.6822,-3.6839,-3.7009,-3.6969,-3.6971,-3.6966,-3.6977,-3.706,-3.7094,-3.7028,-3.7026,-3.704,-3.7131,-3.7162,-3.7172,-3.73,-3.7202,-3.7209,-3.7213,-3.7216,-3.7517,-3.752,0,0,0,0,0,0,-3.6813,-3.6833,-3.7006,-3.7013,-3.6891,-3.6973,-3.6986,-3.7028,-3.7093,-3.71,-3.7043,-3.7038,-3.715,-3.7163,-3.7176,-3.7306,-3.721,-3.7217,-3.7221,-3.7513,-3.7517,-3.7521,0,0,0,0,0,0,-3.6808,-3.6829,-3.7001,-3.6923,-3.6944,-3.698,-3.7028,-3.7032,-3.7062,-3.7104,-3.711,-3.7067,-3.7149,-3.7165,-3.7259,-3.7309,-3.722,-3.7227,-3.7509,-3.7515,-3.7519,-3.7568,0,0,0,0,0,0,-3.6801,-3.6827,-3.6869,-3.6924,-3.6949,-3.7083,-3.7031,-3.7036,-3.7075,-3.7071,-3.7129,-3.7136,-3.7147,-3.7248,-3.7267,-3.7318,-3.7233,-3.7505,-3.7512,-3.7518,-3.7562,-3.7574,-3.7584,0,0,0,0,0,-3.6793,-3.6878,-3.6871,-3.6892,-3.7002,-3.7086,-3.71,-3.7112,-3.7079,-3.7121,-3.7148,-3.7134,-3.7301,-3.7258,-3.7279,-3.7333,-3.7502,-3.751,-3.7517,-3.7557,-3.7571,-3.7584,0,0,0,0,0,0,-3.6829,-3.6886,-3.6878,-3.6984,-3.703,-3.7082,-3.7135,-3.7127,-3.7184,-3.7178,-3.719,-3.7203,-3.7299,-3.7326,-3.7277,-3.7441,-3.7397,-3.7409,-3.742,-3.7434,-3.7445,-3.7436,-3.7239,0,0,0,0,0,-3.6849,-3.6913,-3.6959,-3.7048,-3.7072,-3.71,-3.7137,-3.7142,-3.7191,-3.721,-3.7244,-3.7292,-3.7355,-3.7397,-3.7457,-3.7566,-3.7578,-3.7614,-3.7625,-3.7634,-3.7644,-3.7702,-3.7718,-3.7547,-3.7547,-3.7546,0,0,-3.6891,-3.693,-3.697,-3.7056,-3.7093,-3.7158,-3.7117,-3.7188,-3.7236,-3.7221,-3.7311,-3.7338,-3.7393,-3.7494,-3.7541,-3.7519,-3.7694,-3.7644,-3.7651,-3.7656,-3.7711,-3.7727,-3.7742,-3.7552,-3.7551,-3.755,0,0,-3.7001,-3.7038,-3.7115,-3.7152,-3.7208,-3.7226,-3.7244,-3.7298,-3.7314,-3.7405,-3.7395,-3.7453,-3.7562,-3.7601,-3.7634,-3.7759,-3.7747,-3.7778,-3.7836,-3.7893,-3.7906,-3.7918,-3.796,-3.7975,-3.7788,-3.7789,-3.7789,0,-3.7047,-3.7145,-3.7156,-3.7228,-3.7265,-3.7254,-3.7332,-3.7368,-3.7441,-3.7467,-3.7442,-3.7578,-3.7614,-3.7723,-3.7754,-3.7782,-3.7803,-3.7771,-3.7903,-3.7915,-3.7927,-3.7967,-3.7983,-3.7792,-3.7791,-3.7791,-3.7791,0,-3.7197,-3.7265,-3.7321,-3.739,-3.7435,-3.7509,-3.7531,-3.7575,-3.7576,-3.7596,-3.7688,-3.7731,-3.7799,-3.7826,-3.7829,-3.7936,-3.7921,-3.79,-3.7855,-3.7946,-3.7984,-3.8,-3.7796,-3.7795,-3.7794,-3.7794,0,0,-3.7332,-3.7406,-3.7426,-3.7457,-3.7517,-3.757,-3.7644,-3.771,-3.7746,-3.7797,-3.7859,-3.7951,-3.7931,-3.797,-3.7977,-3.8026,-3.8119,-3.7999,-3.8,-3.8018,-3.8238,-3.8252,-3.827,-3.8113,-3.8116,-3.8118,-3.8233,0,-3.7446,-3.7575,-3.7587,-3.7703,-3.7765,-3.7756,-3.782,-3.7864,-3.7885,-3.7941,-3.7964,-3.8029,-3.7999,-3.8022,-3.8071,-3.8098,-3.8163,-3.809,-3.8169,-3.8172,-3.8153,-3.829,-3.8306,-3.8412,-3.8248,-3.8251,-3.8253,0,-3.7596,-3.765,-3.7772,-3.7822,-3.7848,-3.7906,-3.7966,-3.8021,-3.807,-3.8082,-3.8124,-3.8124,-3.82,-3.8154,-3.8257,-3.8207,-3.824,-3.8258,-3.8263,-3.8269,-3.8216,-3.8298,-3.8446,-3.8461,-3.8277,-3.8275,-3.8273,0,-3.7679,-3.7783,-3.7868,-3.7895,-3.7957,-3.7997,-3.8024,-3.807,-3.8109,-3.8163,-3.8188,-3.825,-3.8284,-3.8332,-3.8348,-3.8313,-3.845,-3.8406,-3.8461,-3.8461,-3.8489,-3.8487,-3.8642,-3.8514,-3.8514,-3.8514,-3.8513,0,-3.7804,-3.7878,-3.7906,-3.7959,-3.8042,-3.8055,-3.8137,-3.8162,-3.8203,-3.826,-3.8257,-3.831,-3.833,-3.8387,-3.84,-3.8483,-3.8499,-3.851,-3.8512,-3.8509,-3.8507,-3.8529,-3.8522,-3.8518,-3.8517,-3.8516,-3.8516,0,-3.7911,-3.7933,-3.8025,-3.8075,-3.8089,-3.8148,-3.8191,-3.8241,-3.8262,-3.8334,-3.8352,-3.8384,-3.845,-3.8472,-3.8553,-3.8562,-3.8658,-3.8655,-3.8641,-3.864,-3.8694,-3.8687,-3.8867,-3.8891,-3.8749,-3.875,-3.8751,0,-3.7988,-3.8045,-3.81,-3.8138,-3.8166,-3.8228,-3.8266,-3.8282,-3.8322,-3.8382,-3.8425,-3.8491,-3.8544,-3.8652,-3.8682,-3.8744,-3.8741,-3.88,-3.875,-3.8744,-3.8739,-3.8735,-3.874,-3.8808,-3.881,-3.8811,-3.8812,0,-3.8122,-3.8129,-3.8186,-3.8245,-3.8292,-3.834,-3.8386,-3.8417,-3.8439,-3.8485,-3.8553,-3.8594,-3.8676,-3.8741,-3.8804,-3.8832,-3.8825,-3.8827,-3.8843,-3.8839,-3.8828,-3.8833,-3.8664,-3.8823,-3.8822,-3.8821,-3.882,-3.882,-3.8215,-3.8264,-3.831,-3.8373,-3.8409,-3.8452,-3.8501,-3.8527,-3.8584,-3.8651,-3.8657,-3.8729,-3.8776,-3.886,-3.8891,-3.8948,-3.8931,-3.8954,-3.896,-3.8965,-3.8968,-3.8821,-3.896,-3.896,-3.8959,-3.8959,-3.8959,0,-3.8347,-3.8376,-3.8433,-3.8497,-3.8546,-3.8536,-3.8586,-3.8627,-3.8691,-3.8735,-3.8787,-3.8864,-3.8927,-3.8963,-3.9025,-3.9064,-3.9063,-3.908,-3.9076,-3.9083,-3.8981,-3.896,-3.908,-3.908,-3.908,-3.908,-3.908,-3.908,-3.8421,-3.8503,-3.8516,-3.8616,-3.8645,-3.8715,-3.8745,-3.8784,-3.8819,-3.8905,-3.8957,-3.8979,-3.902,-3.9085,-3.9142,-3.9151,-3.9173,-3.9192,-3.9199,-3.9102,-3.909,-3.9078,-3.9058,-3.9197,-3.9198,-3.9296,-3.9297,-3.9297]},{"header":{"parameterUnit":"m.s-1","parameterCategory":1,"la1":30.2991,"la2":30.254,"lo1":-89.0895,"lo2":-89.0444,"dy":0.0017,"dx":0.0017,"nx":28,"ny":28,"refTime":"2023-09-19T09:00:00:Z","depth":0,"parameterNumber":3,"parameterNumberName":"V-component_of_WINDS"},"data":[0,0,0,0,0,0,0,0,0,0,0,0,0,0,0,0,0,0,0,0,0,0,0,0,0,0,0,0,0,0,0,0,0,0,0,0,0,0,0,0,0,0,0,0,0,0,0,0,0,0,0,0,0,0,0,0,0,0,3.267,3.267,0,3.2631,3.2631,3.263,3.2558,3.2557,3.2556,3.2554,3.2514,3.2514,3.2515,0,0,0,0,0,0,0,0,0,0,0,0,0,3.2683,3.2683,3.267,3.267,3.2669,3.2631,3.2631,3.263,3.2559,3.2557,3.2555,3.2554,3.2514,3.2514,3.2515,0,0,0,0,0,0,0,0,0,0,0,0,0,3.2664,3.2683,3.2671,3.2629,3.2625,3.2631,3.2631,3.263,3.2559,3.2557,3.2555,3.2553,3.2514,3.2514,3.2515,3.2558,0,0,3.2516,3.2516,0,0,0,0,0,0,0,0,3.2665,3.2664,3.2636,3.2632,3.2627,3.2597,3.262,3.2606,3.2559,3.2584,3.2554,3.2552,3.2544,3.2541,3.2538,3.2556,3.2554,3.2516,3.2516,3.2516,3.2516,0,0,0,0,0,0,0,3.2667,3.2665,3.2655,3.2635,3.263,3.2612,3.2607,3.2617,3.2576,3.2582,3.2576,3.2573,3.2541,3.2538,3.2537,3.2554,3.2516,3.2516,3.2516,3.2516,3.2602,3.2604,0,0,0,0,0,0,3.2674,3.2667,3.2656,3.2654,3.2642,3.2614,3.2608,3.2609,3.2576,3.2568,3.2575,3.257,3.2539,3.2537,3.2535,3.2581,3.2516,3.2516,3.2516,3.26,3.2602,3.2605,0,0,0,0,0,0,3.2675,3.2674,3.2658,3.2659,3.2655,3.2616,3.2617,3.261,3.2607,3.257,3.2562,3.258,3.2537,3.2535,3.2552,3.2579,3.2516,3.2517,3.2598,3.2601,3.2604,3.2675,0,0,0,0,0,0,3.2675,3.2674,3.2691,3.266,3.2655,3.2676,3.2619,3.261,3.2608,3.2601,3.2573,3.2566,3.2535,3.2552,3.2553,3.2578,3.2517,3.2595,3.2599,3.2603,3.267,3.268,3.2689,0,0,0,0,0,3.2676,3.2713,3.2692,3.2691,3.2675,3.2677,3.2675,3.2639,3.261,3.2625,3.2602,3.2567,3.2577,3.2555,3.2554,3.258,3.2593,3.2598,3.2602,3.2666,3.2678,3.2689,0,0,0,0,0,0,3.2748,3.2708,3.2684,3.2712,3.2699,3.2665,3.2684,3.2653,3.2648,3.2641,3.2597,3.2591,3.2614,3.2599,3.2575,3.2619,3.2579,3.2584,3.2627,3.2639,3.2648,3.265,3.2517,0,0,0,0,0,3.2768,3.2773,3.2738,3.2766,3.276,3.2724,3.2723,3.2696,3.2681,3.2674,3.2652,3.2638,3.2637,3.2638,3.2636,3.2669,3.266,3.2686,3.2696,3.2704,3.2708,3.2721,3.2731,3.262,3.262,3.262,0,0,3.2807,3.2786,3.2792,3.278,3.2766,3.2772,3.2719,3.2728,3.2731,3.2676,3.269,3.2673,3.2654,3.2679,3.2689,3.2667,3.2737,3.271,3.2716,3.2716,3.2727,3.2738,3.2747,3.2623,3.2623,3.2622,0,0,3.2882,3.2868,3.2888,3.2875,3.2855,3.283,3.2836,3.2806,3.2793,3.2806,3.2764,3.2768,3.2769,3.2756,3.275,3.2819,3.2786,3.282,3.2868,3.2882,3.289,3.2898,3.292,3.2928,3.2825,3.2825,3.2825,0,3.2933,3.2941,3.2902,3.2913,3.2908,3.2858,3.2878,3.2868,3.2848,3.2845,3.2822,3.2821,3.2805,3.2824,3.2841,3.2839,3.2842,3.2822,3.2893,3.29,3.2906,3.2926,3.2935,3.2829,3.2828,3.2828,3.2828,0,3.3004,3.3009,3.3029,3.301,3.3007,3.3023,3.2986,3.2988,3.2962,3.294,3.2953,3.2932,3.2924,3.2927,3.2902,3.2943,3.293,3.2901,3.2859,3.2921,3.2939,3.2947,3.2835,3.2833,3.2832,3.2831,0,0,3.3121,3.3081,3.3088,3.3078,3.3052,3.3055,3.3069,3.306,3.3061,3.305,3.3058,3.306,3.3032,3.3025,3.2998,3.3011,3.3063,3.2979,3.2978,3.2993,3.3103,3.3123,3.3133,3.3042,3.3044,3.3045,3.3104,0,3.3187,3.3206,3.3172,3.3199,3.3202,3.3155,3.3166,3.3151,3.3131,3.313,3.3108,3.3108,3.3073,3.3068,3.3079,3.3055,3.3084,3.305,3.3047,3.3047,3.305,3.3143,3.3164,3.322,3.3111,3.3112,3.3113,0,3.3267,3.3258,3.3285,3.3256,3.3256,3.3267,3.3255,3.3256,3.3238,3.3222,3.3214,3.3182,3.3191,3.3153,3.3164,3.3142,3.3139,3.3127,3.3128,3.3124,3.3082,3.3138,3.3238,3.3245,3.3124,3.3123,3.3122,0,3.3346,3.3341,3.3356,3.335,3.3317,3.3325,3.3311,3.3291,3.3288,3.3278,3.3274,3.3267,3.3261,3.3255,3.3221,3.3198,3.3236,3.3196,3.3221,3.3222,3.3229,3.3228,3.3326,3.3232,3.3232,3.3232,3.3232,0,3.3421,3.3439,3.3391,3.34,3.3417,3.3378,3.3397,3.3379,3.3361,3.3365,3.3325,3.3329,3.3286,3.3285,3.326,3.3271,3.327,3.3256,3.3248,3.3258,3.3259,3.3253,3.3247,3.3234,3.3234,3.3233,3.3233,0,3.3511,3.348,3.3492,3.346,3.3453,3.3467,3.3439,3.3445,3.3423,3.3428,3.3427,3.3391,3.3388,3.3354,3.3345,3.3327,3.3347,3.3334,3.3353,3.3347,3.3373,3.337,3.3469,3.3478,3.3382,3.3383,3.3383,0,3.356,3.3572,3.3541,3.3541,3.3529,3.353,3.3525,3.3488,3.3485,3.3464,3.3473,3.3467,3.3459,3.3456,3.3429,3.342,3.3404,3.3439,3.3403,3.3411,3.3401,3.3399,3.3399,3.3446,3.3448,3.3449,3.3449,0,3.3649,3.3633,3.3628,3.3619,3.3615,3.3605,3.3593,3.3595,3.3553,3.3552,3.3548,3.3543,3.3532,3.3525,3.3512,3.3497,3.3466,3.3462,3.3466,3.3475,3.3484,3.3476,3.3371,3.3459,3.3458,3.3457,3.3457,3.3456,3.3718,3.3725,3.3704,3.37,3.3687,3.3677,3.368,3.3658,3.3654,3.3642,3.362,3.3619,3.3599,3.3578,3.3566,3.3564,3.3545,3.3553,3.3554,3.3556,3.356,3.3487,3.3561,3.3561,3.3561,3.3561,3.356,0,3.3802,3.3786,3.3783,3.3767,3.3763,3.3735,3.372,3.3719,3.3718,3.3703,3.3696,3.3691,3.3684,3.3656,3.3646,3.3649,3.3634,3.3647,3.3645,3.3642,3.3579,3.3574,3.3659,3.3659,3.3659,3.3659,3.3659,3.3659,3.3845,3.3855,3.3837,3.384,3.3824,3.3823,3.3816,3.3805,3.3792,3.3788,3.3782,3.3764,3.3743,3.3731,3.3723,3.3714,3.3711,3.3729,3.3715,3.3656,3.3647,3.3637,3.3632,3.3729,3.3729,3.3778,3.3779,3.3779]}]]